STARLINK-2536, 48310

Orbit data source: Space-Track

STARLINK-2536, 48310 is a payload satellite owned by SpaceX/Seattle (US) in LEO that was launched on Thu, 29 Apr 2021 UTC via an FALCON 9 launch vehicle from the Air Force Eastern Test Range (AFETR). Payloads include a variety of satellites, spacecraft, and rockets equipped with specific instruments for various scientific and technological missions. These include communications satellites like Starlink; space stations such as the ISS; scientific satellites like the Hubble; Earth observation satellites from companies like Planet Labs, Umbra, and HawkEye 360; GPS; miniature CubeSats for education and research; and military/defense satellites.

Loading next visibility...
STARLINK-2536 details
Identifier
48310, 2021-036AL
Orbit
LEO
Last TLE update17 hours ago
Origin
Flag of USSpaceX/Seattle (US)
ManufacturerSpaceX/Seattle
MissionOperational Commercial Communications
Bus & MotorSTARLINK, Unknown motor
Mass260 kg wet, ~248 kg dry
Launch date (UTC)
2021-04-29 (4 years ago)
Launch vehicle
FALCON 9
Launch site
Air Force Eastern Test Range (AFETR)
Object type
Payload
Rocket body
Debris
Shape & HBRBox + 1 Pan, 8.86 m
Radar Cross Section13.562 m², Large (>1 m²)

Expand to show TLE details & history

TLE from 17 hours ago
0 STARLINK-2536
1 48310U 21036AL  25035.81105073  .00002706  00000-0  20048-3 0  9990
2 48310  53.0554  77.7661 0001644  92.7693 267.3484 15.06401484208798
Epoch: 2025-02-04T19:27Z
Definitive object data (Epoch: 2025-02-04T19:27:54.783Z)
Latitude-0.00001°
Longitude10.57684°
Altitude548.139 km
Speed7.589 km/s
True Right ascension05h 11m 03s
True Declination0° 00' 00"
Sunlit
Object was in full shadow at TLE epoch
Visualization TLE readout
Latitude34.85461°
Longitude156.09551°
Altitude548.861 km
Speed7.593 km/s
Apparent Right ascension18h 12m 39s
Apparent Declination-5° 20' 47"
Sunlit
Object is in daylight
Visualization observer readout
Local Sidereal Time14:02:03
Azimuth112.425° ESE
Elevation16.92°
Doppler factor1
Orbital elements
Apogee altitude548.616 km
Perigee altitude546.339 km
Semi-major axis6,925.615 km
Eccentricity0.0001644
Inclination53.0554°
RAAN77.7661°
Arg. of periapsis92.7693°
True anomaly267.32958°
Mean anomaly267.3484°
Eccentric anomaly267.33899°
Mean motion3.76579 °/min
BSTAR0.00020048
Orbital period95.6 mins
Loading maneuver chart data...
Loading historical data...
Loading historical data...
Loading historical data...
Loading historical data...
Loading historical data...
Loading historical data...
Loading historical data...

STARLINK-2536 Visibility forecast

Observer location: undefined°, undefined

Span
Click to sort rows by Start time (UTC) header in descending order
Start Az.
Max El. time (UTC)
Max El. Az.
Max El.
End time (UTC)
End Az.
4 mins2025-02-05 13:33:58.014Z254.234° W2025-02-05 13:34:58.014Z234.988° WSW18.415°2025-02-05 13:37:58.014Z186.551° SSW
6 mins2025-02-06 05:05:58.014Z221.414° SW2025-02-06 05:07:58.014Z161.494° S44.347°2025-02-06 05:11:58.014Z52.619° ENE
5 mins2025-02-06 06:45:58.014Z297.833° NW2025-02-06 06:47:58.014Z336.636° NNW21.07°2025-02-06 06:50:58.014Z27.505° NE
4 mins2025-02-06 10:07:58.014Z350.237° N2025-02-06 10:09:58.014Z28.242° NE18.27°2025-02-06 10:11:58.014Z61.006° ENE
6 mins2025-02-06 11:46:58.014Z314.493° NW2025-02-06 11:49:58.014Z89.608° E43.255°2025-02-06 11:52:58.014Z124.671° SE
|